Location: Noulens
(43.8099°N, 0.1664°E)
Time: 01:49:16
(UTC+00:00)

Cosmos 1315 Rocket - Pass Details

Date: 07 June 2020
Orbit: 529 x 568 km, 81.2° (Epoch: 11 July)

Event Time Altitude Azimuth Distance (km) Brightness Sun altitude
Rises 02:13:23 0° 345° (NNW) 2,685 7.0 -16.6°
Reaches altitude 10° 02:15:34 10° 340° (NNW) 1,792 5.9 -16.3°
Maximum altitude 02:19:25 53° 264° (W) 664 2.9 -16.0°
Enters shadow 02:21:00 31° 203° (SSW) 961 3.5 -15.8°
